222  
ASUS41 KPHI 220213  
RWRPHI  
 
REGIONAL WEATHER ROUNDUP  
NATIONAL WEATHER SERVICE MOUNT HOLLY NJ  
1000 PM EDT MON MAY 21 2018  
 
NOTE: "FAIR" INDICATES FEW OR NO CLOUDS BELOW 12,000 FEET WITH NO  
SIGNIFICANT WEATHER AND/OR S TO VISIBILITY
.  
 
* = STATION DOES NOT REPORT PRECIPITATION (E.G. RAIN, SNOW, ETC.)  
OR FOG.
 
 
NJZ015>026-220300-  
SOUTHERN NEW JERSEY  
 
CITY SKY/WX TMP DP RH WIND PRES REMARKS
 
POMONA FAIR 60 53 77 CALM 30.18S  
WILDWOOD* FAIR 59 55 87 CALM 30.18F  
MILLVILLE FAIR 59 55 87 SE3 30.18S  
WRIGHTSTOWN FAIR 59 51 73 CALM 30.15R  
MOUNT HOLLY FAIR 61 54 77 CALM 30.17R  
TRENTON FAIR 63 51 65 S6 30.17R  
 

 
NJZ001>014-220300-  
NORTHERN NEW JERSEY  
 
CITY SKY/WX TMP DP RH WIND PRES REMARKS
 
SUSSEX FAIR 59 53 80 CALM 30.15R  
ANDOVER* N/A 61 54 77 CALM 30.16R  
MORRISTOWN CLEAR 66 54 63 S5 30.16R  
NEWARK MOCLDY 64 50 60 S9 30.16R  
TETERBORO FAIR 66 51 58 S6 30.14S  
CALDWELL FAIR 67 51 56 CALM 30.16R  
SOMERVILLE FAIR 64 54 69 S5 30.15R  
ALLAIRE* FAIR 59 49 69 SW7 30.19R  
TOMS RIVER* FAIR 56 51 84 CALM 30.19R  
 

 
PAZ043-044-047-054-055-060>062-066>071-220300-  
EASTERN PENNSYLVANIA  
 
CITY SKY/WX TMP DP RH WIND PRES REMARKS
 
PHILADELPHIA FAIR 64 52 64 SE6 30.18R  
NORTH PHILA FAIR 67 52 58 S5 30.18R  
BLUE BELL* FAIR 64 55 72 S7 30.18S  
DOYLESTOWN FAIR 64 54 69 VRB5 30.16R  
QUAKERTOWN* CLEAR 63 55 77 CALM 30.16S  
PERKASIE* FAIR 59 57 94 CALM 30.17S  
POTTSTOWN FAIR 65 52 62 CALM 30.17R  
LANCASTER FAIR 66 57 72 E3 30.14S  
COATESVILLE FAIR 64 57 77 SE5 30.18S  
READING FAIR 70 56 61 CALM 30.13S  
ALLENTOWN FAIR 66 50 56 CALM 30.15R  
MOUNT POCONO FAIR 56 49 77 CALM 30.19R  
HAZLETON FAIR 55 37 50 CALM 30.21S  
LEHIGHTON FAIR 57 54 88 CALM 30.17R  
WILKES BARRE FAIR 62 47 57 E8 30.15R  
 

 
DEZALL-MDZ008-012-015-019-020-220300-  
DELAWARE AND EASTERN MARYLAND  
 
CITY SKY/WX TMP DP RH WIND PRES REMARKS
 
WILMINGTON FAIR 64 57 78 S12 30.18R  
DOVER PTCLDY 62 58 85 SE6 30.17S  
GEORGETOWN FAIR 62 55 77 CALM 30.18S  
EASTON CLEAR 68 55 64 S5 30.21R  
ABERDEEN FAIR 67 60 75 SE3 30.16R  
PATUXENT FAIR 68 57 68 S6 30.16  
OCEAN CITY FAIR 60 58 92 E3 30.18S  
WALLOPS ISLAND FAIR 64 58 80 E5 30.17S  
CAMBRIDGE N/A 64 59 82 CALM 30.17R  
SALISBURY FAIR 62 57 83 CALM 30.17S  
 

 
PAZ001-021-NYZ056-072-MDZ011-DCZ001-220300-  
OTHER NEARBY LOCATIONS  
 
CITY SKY/WX TMP DP RH WIND PRES REMARKS
 
HARRISBURG MOCLDY 64 58 80 SE5 30.13R  
STATE COLLEGE CLEAR 68 54 60 SE3 30.15R  
WILLIAMSPORT FAIR 65 53 65 N6 30.12R  
BINGHAMTON FAIR 66 41 40 CALM 30.16R  
NEW YORK CITY FAIR 65 48 54 CALM 30.18R  
BALTIMORE MOCLDY 69 61 75 S6 30.14S  
WASHINGTON DC MOCLDY 71 62 73 S9 30.15R  
 

 
 
 
CLICK HERE TO GO TO PREVIOUS BULLETINS.

The Nexlab PA Page
The Nexlab NJ Page
The Nexlab DE Page
The Nexlab MD Page Main Text Page